When you browse on this site, cookies collect data to enhance your experience and personalize the content and advertising you see.
Visit our Privacy Policy to learn more. By continuing to use the site, you agree to this use of cookies and data.
  • In Hungary
  • List of Countries
  • For 7 days
  • Water Temperature
  • Satellite Maps
  • Weather Map
  • News
  • Weather Widgets
  • user-avatar
    Login

    Hourly Weather Lahaur

    Today, 21 November, Wednesday

    Time Temperature Precipitation Wind Pressure Humidity
    00:00 +20°C° 0 mm 2 mps 743 mmHg 28%
    01:00 +20°C° 0 mm 2 mps 742 mmHg 29%
    02:00 +19°C° 0 mm 2 mps 742 mmHg 30%
    03:00 +20°C° 0 mm 1 mps 742 mmHg 32%
    04:00 +20°C° 0 mm 1 mps 742 mmHg 33%
    05:00 +19°C° 0 mm 1 mps 742 mmHg 35%
    06:00 +20°C° 0 mm 1 mps 743 mmHg 34%
    07:00 +20°C° 0 mm 1 mps 743 mmHg 33%
    08:00 +21°C° 0 mm 1 mps 743 mmHg 33%
    09:00 +23°C° 0 mm 1 mps 743 mmHg 29%
    10:00 +26°C° 0 mm 2 mps 743 mmHg 25%
    11:00 +29°C° 0 mm 2 mps 744 mmHg 21%
    12:00 +29°C° 0 mm 2 mps 743 mmHg 19%
    13:00 +30°C° 0 mm 2 mps 742 mmHg 18%
    14:00 +31°C° 0 mm 2 mps 742 mmHg 17%
    15:00 +29°C° 0 mm 2 mps 741 mmHg 18%
    16:00 +28°C° 0 mm 2 mps 741 mmHg 20%
    17:00 +26°C° 0 mm 1 mps 741 mmHg 22%
    18:00 +25°C° 0 mm 1 mps 741 mmHg 23%
    19:00 +24°C° 0 mm 1 mps 742 mmHg 24%
    20:00 +24°C° 0 mm 1 mps 742 mmHg 25%
    21:00 +23°C° 0 mm 1 mps 742 mmHg 26%
    22:00 +22°C° 0 mm 1 mps 742 mmHg 27%
    23:00 +22°C° 0 mm 1 mps 742 mmHg 28%

    Tomorrow, 22 November, Thursday

    Time Temperature Precipitation Wind Pressure Humidity
    00:00 +21°C° 0 mm 1 mps 742 mmHg 29%
    01:00 +19°C° 0 mm 0 mps 742 mmHg 29%
    02:00 +18°C° 0 mm 0 mps 742 mmHg 30%
    03:00 +18°C° 0 mm 0 mps 742 mmHg 31%
    04:00 +17°C° 0 mm 0 mps 742 mmHg 32%
    05:00 +17°C° 0 mm 0 mps 742 mmHg 32%
    06:00 +18°C° 0 mm 0 mps 742 mmHg 32%
    07:00 +18°C° 0 mm 0 mps 743 mmHg 31%
    08:00 +21°C° 0 mm 1 mps 743 mmHg 31%
    09:00 +21°C° 0 mm 0 mps 743 mmHg 27%
    10:00 +24°C° 0 mm 0 mps 744 mmHg 24%
    11:00 +26°C° 0 mm 0 mps 744 mmHg 20%
    12:00 +29°C° 0 mm 1 mps 744 mmHg 19%
    13:00 +29°C° 0 mm 2 mps 743 mmHg 17%
    14:00 +30°C° 0 mm 2 mps 743 mmHg 15%
    15:00 +29°C° 0 mm 3 mps 743 mmHg 16%
    16:00 +28°C° 0 mm 3 mps 743 mmHg 18%
    17:00 +26°C° 0 mm 3 mps 743 mmHg 19%
    18:00 +25°C° 0 mm 3 mps 744 mmHg 20%
    19:00 +24°C° 0 mm 3 mps 744 mmHg 21%
    20:00 +22°C° 0 mm 3 mps 745 mmHg 22%
    21:00 +21°C° 0 mm 2 mps 745 mmHg 23%
    22:00 +21°C° 0 mm 2 mps 745 mmHg 24%
    23:00 +20°C° 0 mm 2 mps 745 mmHg 25%

    Day after tomorrow, 23 November, Friday

    Time Temperature Precipitation Wind Pressure Humidity
    00:00 +20°C° 0 mm 2 mps 745 mmHg 25%
    01:00 +19°C° 0 mm 2 mps 745 mmHg 26%
    02:00 +19°C° 0 mm 2 mps 745 mmHg 26%
    03:00 +18°C° 0 mm 2 mps 745 mmHg 27%
    04:00 +18°C° 0 mm 2 mps 745 mmHg 28%
    05:00 +17°C° 0 mm 2 mps 745 mmHg 29%
    06:00 +18°C° 0 mm 2 mps 745 mmHg 29%
    07:00 +18°C° 0 mm 2 mps 746 mmHg 28%
    08:00 +19°C° 0 mm 2 mps 746 mmHg 28%
    09:00 +21°C° 0 mm 3 mps 746 mmHg 25%
    10:00 +24°C° 0 mm 3 mps 746 mmHg 21%
    11:00 +27°C° 0 mm 3 mps 746 mmHg 18%
    12:00 +28°C° 0 mm 4 mps 746 mmHg 17%
    13:00 +29°C° 0 mm 4 mps 745 mmHg 16%
    14:00 +30°C° 0 mm 4 mps 744 mmHg 15%
    15:00 +28°C° 0 mm 4 mps 744 mmHg 17%
    16:00 +27°C° 0 mm 3 mps 744 mmHg 18%
    17:00 +25°C° 0 mm 3 mps 743 mmHg 19%
    18:00 +24°C° 0 mm 3 mps 744 mmHg 20%
    19:00 +22°C° 0 mm 3 mps 744 mmHg 21%
    20:00 +21°C° 0 mm 3 mps 744 mmHg 22%
    21:00 +20°C° 0 mm 3 mps 744 mmHg 23%
    22:00 +20°C° 0 mm 3 mps 744 mmHg 25%
    23:00 +19°C° 0 mm 3 mps 744 mmHg 26%

    24 November, Saturday

    Time Temperature Precipitation Wind Pressure Humidity
    00:00 +18°C° 0 mm 3 mps 744 mmHg 26%
    01:00 +18°C° 0 mm 3 mps 743 mmHg 27%
    02:00 +17°C° 0 mm 3 mps 743 mmHg 28%
    03:00 +17°C° 0 mm 3 mps 743 mmHg 29%
    04:00 +17°C° 0 mm 3 mps 742 mmHg 29%
    05:00 +16°C° 0 mm 3 mps 742 mmHg 30%
    06:00 +17°C° 0 mm 3 mps 743 mmHg 29%
    07:00 +17°C° 0 mm 3 mps 743 mmHg 28%
    08:00 +18°C° 0 mm 3 mps 743 mmHg 28%
    09:00 +21°C° 0 mm 3 mps 743 mmHg 23%
    10:00 +24°C° 0 mm 3 mps 744 mmHg 19%
    11:00 +27°C° 0 mm 4 mps 744 mmHg 15%
    12:00 +28°C° 0 mm 4 mps 743 mmHg 13%
    13:00 +29°C° 0 mm 4 mps 742 mmHg 12%
    14:00 +32°C° 0 mm 4 mps 742 mmHg 11%
    15:00 +29°C° 0 mm 3 mps 741 mmHg 12%
    16:00 +27°C° 0 mm 3 mps 741 mmHg 13%
    17:00 +26°C° 0 mm 2 mps 741 mmHg 14%
    18:00 +25°C° 0 mm 2 mps 741 mmHg 15%
    19:00 +24°C° 0 mm 2 mps 742 mmHg 16%
    20:00 +23°C° 0 mm 2 mps 742 mmHg 16%
    21:00 +22°C° 0 mm 1 mps 742 mmHg 17%
    22:00 +21°C° 0 mm 1 mps 743 mmHg 18%
    23:00 +21°C° 0 mm 1 mps 743 mmHg 19%

    25 November, Sunday

    Time Temperature Precipitation Wind Pressure Humidity
    00:00 +20°C° 0 mm 1 mps 743 mmHg 20%
    01:00 +20°C° 0 mm 1 mps 742 mmHg 20%
    02:00 +19°C° 0 mm 1 mps 742 mmHg 21%
    03:00 +19°C° 0 mm 1 mps 742 mmHg 21%
    04:00 +19°C° 0 mm 1 mps 742 mmHg 22%
    05:00 +16°C° 0 mm 0 mps 741 mmHg 22%
    06:00 +17°C° 0 mm 0 mps 742 mmHg 22%
    07:00 +18°C° 0 mm 0 mps 742 mmHg 22%
    08:00 +18°C° 0 mm 0 mps 743 mmHg 22%
    09:00 +21°C° 0 mm 0 mps 743 mmHg 19%
    10:00 +23°C° 0 mm 0 mps 743 mmHg 17%
    11:00 +26°C° 0 mm 0 mps 743 mmHg 14%
    12:00 +29°C° 0 mm 1 mps 743 mmHg 13%
    13:00 +30°C° 0 mm 1 mps 742 mmHg 12%
    14:00 +31°C° 0 mm 1 mps 742 mmHg 11%
    15:00 +29°C° 0 mm 1 mps 741 mmHg 12%
    16:00 +27°C° 0 mm 1 mps 741 mmHg 13%
    17:00 +26°C° 0 mm 1 mps 741 mmHg 14%
    18:00 +25°C° 0 mm 1 mps 741 mmHg 15%
    19:00 +24°C° 0 mm 1 mps 742 mmHg 16%
    20:00 +23°C° 0 mm 1 mps 742 mmHg 16%
    21:00 +22°C° 0 mm 1 mps 742 mmHg 17%
    22:00 +22°C° 0 mm 1 mps 742 mmHg 18%
    23:00 +21°C° 0 mm 1 mps 742 mmHg 18%

    26 November, Monday

    Time Temperature Precipitation Wind Pressure Humidity
    00:00 +21°C° 0 mm 1 mps 742 mmHg 19%
    01:00 +20°C° 0 mm 1 mps 742 mmHg 20%
    02:00 +20°C° 0 mm 1 mps 742 mmHg 21%
    03:00 +19°C° 0 mm 1 mps 742 mmHg 22%
    04:00 +19°C° 0 mm 1 mps 742 mmHg 23%
    05:00 +18°C° 0 mm 1 mps 742 mmHg 24%
    06:00 +19°C° 0 mm 1 mps 742 mmHg 23%
    07:00 +20°C° 0 mm 1 mps 742 mmHg 23%
    08:00 +20°C° 0 mm 1 mps 743 mmHg 23%
    09:00 +21°C° 0 mm 0 mps 743 mmHg 20%
    10:00 +23°C° 0 mm 0 mps 743 mmHg 18%
    11:00 +26°C° 0 mm 0 mps 743 mmHg 15%
    12:00 +29°C° 0 mm 1 mps 742 mmHg 14%
    13:00 +29°C° 0 mm 1 mps 741 mmHg 13%
    14:00 +30°C° 0 mm 2 mps 741 mmHg 12%
    15:00 +29°C° 0 mm 1 mps 740 mmHg 13%
    16:00 +27°C° 0 mm 1 mps 740 mmHg 15%
    17:00 +26°C° 0 mm 1 mps 740 mmHg 16%
    18:00 +23°C° 0 mm 0 mps 741 mmHg 17%
    19:00 +22°C° 0 mm 0 mps 741 mmHg 17%
    20:00 +21°C° 0 mm 0 mps 742 mmHg 18%
    21:00 +20°C° 0 mm 0 mps 742 mmHg 19%
    22:00 +20°C° 0 mm 0 mps 742 mmHg 19%
    23:00 +19°C° 0 mm 0 mps 742 mmHg 20%
    Show more